This is the latest recevied weather packets stored in our database for station/object PY2XH-13. If no packets are shown the sender has not sent any weather packets the latest 10 day(s).
| Time | Temp. | Humidity | Pressure | Rain* | Wind** | Luminosity | Snow |
|---|---|---|---|---|---|---|---|
| 1788405364 | 20.56° C | 58% | 1034.2 hPa | - | - | - | - |
| 1788403564 | 21.11° C | 58% | 1034.6 hPa | - | - | - | - |
| 1788401764 | 21.11° C | 59% | 1034.7 hPa | - | - | - | - |
| 1788399964 | 21.11° C | 59% | 1035 hPa | - | - | - | - |
| 1788398164 | 21.11° C | 60% | 1035.1 hPa | - | - | - | - |
| 1788396364 | 21.11° C | 59% | 1035.3 hPa | - | - | - | - |
| 1788394564 | 21.11° C | 60% | 1035.3 hPa | - | - | - | - |
| 1788392764 | 21.11° C | 60% | 1035.3 hPa | - | - | - | - |
| 1788390964 | 21.11° C | 59% | 1035.1 hPa | - | - | - | - |
| 1788389164 | 21.11° C | 59% | 1035.1 hPa | - | - | - | - |
| 1788387364 | 21.11° C | 59% | 1034.9 hPa | - | - | - | - |
| 1788385564 | 21.11° C | 59% | 1034.4 hPa | - | - | - | - |
| 1788383764 | 21.11° C | 58% | 1034.3 hPa | - | - | - | - |
| 1788381965 | 21.11° C | 57% | 1034.1 hPa | - | - | - | - |
| 1788380164 | 21.11° C | 56% | 1033.8 hPa | - | - | - | - |
| 1788378364 | 21.67° C | 55% | 1033.6 hPa | - | - | - | - |
| 1788376564 | 22.22° C | 51% | 1033.3 hPa | - | - | - | - |
| 1788374764 | 22.78° C | 52% | 1033 hPa | - | - | - | - |
| 1788372964 | 23.33° C | 46% | 1032.5 hPa | - | - | - | - |
| 1788371164 | 22.78° C | 46% | 1032.3 hPa | - | - | - | - |
| 1788369364 | 22.78° C | 46% | 1032.5 hPa | - | - | - | - |
| 1788367564 | 22.22° C | 47% | 1032.8 hPa | - | - | - | - |
| 1788365764 | 21.67° C | 49% | 1033.2 hPa | - | - | - | - |
| 1788363964 | 21.11° C | 51% | 1033.5 hPa | - | - | - | - |
| 1788362164 | 21.11° C | 56% | 1033.5 hPa | - | - | - | - |
* Rain since midnight (hover to see other rain measurements)
** Current wind speed in m/s (hover to see current wind gust speed)